Regional Weather Roundup
Issued by NWS

Home | Current Version | Previous Version | Graphics & Text | Print | Product List | Glossary On
Versions: 1 2 3 4 5 6 7 8 9 10 11 12 13 14 15 16 17 18 19 20 21 22 23 24 25 26 27 28 29 30 31 32 33 34 35 36 37 38 39 40 41 42 43 44 45 46 47 48 49 50
000
ASUS43 KIND 120959
RWRIN

WEATHER ROUNDUP FOR INDIANA
NATIONAL WEATHER SERVICE INDIANAPOLIS IN
600 AM EDT SAT JUL 12 2014

NOTE: "FAIR" INDICATES FEW OR NO CLOUDS BELOW 12,000 FEET WITH NO
SIGNIFICANT WEATHER AND/OR OBSTRUCTIONS TO VISIBILITY.

* - STATION DOES NOT REPORT WEATHER SUCH AS PRECIPITATION OR FOG.

+ - STATION NOT QUALITY CONTROLLED BY THE NATIONAL WEATHER SERVICE.
    USE DATA WITH CAUTION...ESPECIALLY DEWPOINT AND RELATIVE
    HUMIDITY OBSERVATIONS.

INZ001>003-010>013-019-020-121100-
NORTHWEST INDIANA

CITY           SKY/WX    TMP DP  RH WIND       PRES   REMARKS
GARY /AIRPORT/ MOCLDY    72  61  68 SE5       30.07F
KNOX *+        PTCLDY    66  60  79 S5        30.09F
MONTICELLO +   MOCLDY    68  62  79 SE3       30.10S
RENSSELAER +   CLOUDY    70  63  78 SE6       30.09S
VALPARAISO     PTCLDY    68  61  78 SE6       30.09F

$$

LMZ046-743>745-121100-
SOUTHERN LAKE MICHIGAN

STATION/POSITION TIME  TEMP WIND        PRES
                       AIR  DIR/SP/G
                 (UTC) (F)  (DEG/KT/KT) (MB)
MICHIGAN CITY    0900   73  140/ 11/ 16   N/A

$$

INZ004-005-014>016-021>024-121100-
NORTH CENTRAL INDIANA

CITY           SKY/WX    TMP DP  RH WIND       PRES   REMARKS
GOSHEN         PTCLDY    67  61  81 S5        30.11F
SOUTH BEND     MOCLDY    70  60  70 S7        30.10F
WARSAW +       MOCLDY    68  61  77 CALM      30.12F

$$

INZ006>009-017-018-025>027-121100-
NORTHEAST INDIANA

CITY           SKY/WX    TMP DP  RH WIND       PRES   REMARKS
ANGOLA *+      CLEAR     63  54  72 CALM      30.14S
FORT WAYNE     CLOUDY    67  61  81 S3        30.14F

$$

INZ028-029-035-036-043>045-051>053-121100-
WEST CENTRAL INDIANA

CITY           SKY/WX    TMP DP  RH WIND       PRES   REMARKS
GREENCASTLE +  MOCLDY    64  63  94 CALM      30.14S
LAFAYETTE      MOCLDY    69  60  73 S3        30.10F
TERRE HAUTE    CLOUDY    70  64  81 CALM      30.12S

$$

INZ030>032-037>040-046>048-054>057-064-065-121100-
CENTRAL INDIANA

CITY           SKY/WX    TMP DP  RH WIND       PRES   REMARKS
INDIANAPOLIS   MOCLDY    67  61  81 SE5       30.14S
-EAGLE CREEK   MOCLDY    68  60  75 SE3       30.14S
KOKOMO *+      CLOUDY    66  61  82 S7        30.13F
MT COMFORT *+  CLOUDY    66  66 100 SE5       30.16S
SHELBYVILLE    CLOUDY    67  61  81 CALM      30.15S

$$

INZ033-034-041-042-049-050-058-059-121100-
EAST CENTRAL INDIANA

CITY           SKY/WX    TMP DP  RH WIND       PRES   REMARKS
MUNCIE         CLOUDY    70  59  68 S3        30.15F

$$

INZ060-061-067>069-081>083-085>088-121100-
SOUTHWEST INDIANA

CITY           SKY/WX    TMP DP  RH WIND       PRES   REMARKS
EVANSVILLE     CLOUDY    73  67  81 CALM      30.13F
HUNTINGBURG *+ CLOUDY    68  63  83 SE6       30.15S

$$

INZ062-063-066-070>080-084-089>092-121100-
SOUTH CENTRAL AND SOUTHEAST INDIANA

CITY           SKY/WX    TMP DP  RH WIND       PRES   REMARKS
BLOOMINGTON    CLOUDY    70  63  78 SE5       30.14F

$$



USA.gov is the U.S. government's official web portal to all federal, state and local government web resources and services.